Location: Newark
(52.0178°N, 4.7453°W)
Time: 02:13:18
(UTC+00:00)

ISS - Pass Details

Date: 26 March 2019
Orbit: 408 x 410 km, 51.6° (Epoch: 20 April)

Event Time Altitude Azimuth Distance (km) Brightness Sun altitude
Rises 19:56:34 0° 246° (WSW) 2,333 0.8 -12.0°
Reaches altitude 10° 19:58:40 10° 243° (WSW) 1,473 -0.4 -12.3°
Maximum altitude 20:01:55 59° 163° (SSE) 477 -3.7 -12.8°
Enters shadow 20:03:47 23° 90° (E) 927 -2.6 -13.0°
